Location: Unspecified
(35.7250°N, 0.0000°E)
Time: 04:30:24
(UTC+00:00)

Vanguard 1 - Pass Details

Date: 01 July 2019
Orbit: 653 x 3830 km, 34.3° (Epoch: 20 July)

Event Time Altitude Azimuth Distance (km) Brightness Sun altitude
Rises 01:39:51 0° 257° (WSW) 7,962 14.4 -26.9°
Reaches altitude 10° 01:45:22 10° 257° (WSW) 6,916 14.0 -26.4°
Maximum altitude 02:08:13 84° 173° (S) 3,004 12.3 -24.2°
Drops below altitude 10° 02:21:54 10° 87° (E) 4,472 13.9 -22.7°
Sets 02:24:38 0° 87° (E) 5,146 14.3 -22.4°
